Showing default

COSMOS 2535, 44421

Orbit data source: Space-Track

COSMOS 2535, 44421 is a payload satellite owned by TS VS RF (CIS) in SSO that was launched on Wed, 10 Jul 2019 UTC via a SOYUZ-2-1V launch vehicle from the Plesetsk Missile And Space Complex (PKMTR). Payload-class satellites include a variety of spacecraft equipped with specific instruments for various scientific and technological missions. These include communications satellites like Starlink; space stations such as the ISS; scientific satellites like the Hubble; Earth observation satellites from companies like Planet Labs, Umbra, and HawkEye 360; GPS; miniature CubeSats for education and research; and military/defense satellites.

Loading next visibility...
Identifier
44421, 2019-039A
Orbit
SSO
Country
Flag of CISCIS
Related business
Manufacturer
Lavochkin
Mission
Non-operational Defense Technology
Bus & Motor
KARAT-200, Unknown motor
Mass
547 kg wet, ~400 kg dry
Launch date (UTC)
2019-07-10 (7 years ago)
Launch vehicle
SOYUZ-2-1V
Launch site
Plesetsk Missile And Space Complex (PKMTR)
Object type
Payload
Rocket body
Debris
Shape & HBR
Cyl + 2 Pan, 1.5 m
Radar Cross Section
3.727 m², Large (>1 m²)

Expand to show TLE details & history
Last TLE update: 4 hours ago

TLE from 4 hours ago
0 COSMOS 2535
1 44421U 19039A   26164.85601821  .00000797  00000-0  84063-4 0  9995
2 44421  97.5767 193.1473 0007278 214.4921 145.5827 14.91936370376149
Epoch: 2026-06-13T20:32Z
TLE epoch observation values (Epoch: 2026-06-13T20:32:39.973Z)
Latitude
-0.00001°
Longitude
-17.18437°
Altitude
599.132 km
Speed
7.558 km/s
True Right ascension
12h 52m 35s
True Declination
0° 00' 00"
Sunlit
Object was in daylight at epoch
Visualization orbit readout
Latitude
Unknown
Longitude
Unknown
Altitude
Unknown
Speed
Unknown
Apparent Right ascension
Unknown
Apparent Declination
Unknown
Sunlit
N/A
Visualization observer readout
Local Sidereal Time
10:47:26
Azimuth
Unknown
Elevation
Unknown
Doppler factor
Unknown
Orbital elements
Apogee altitude
593.98 km
Perigee altitude
583.838 km
Semi-major axis
6,967.046 km
Eccentricity
0.00073
Inclination
97.5767°
RAAN
193.1473°
Arg. of periapsis
214.4921°
True anomaly
145.6298°
Mean anomaly
145.5827°
Eccentric anomaly
145.60626°
Mean motion
3.73225 °/min
Orbital period
96.46 mins
BSTAR
0.000084063
Loading maneuver chart data...
Computing Atmospheric mass density...

Documentation

Showing up to 5 results
|